Hourly Data Report for July 07, 2017

TORONTO CITY
ONTARIO

43°40'00.000" N
79°24'00.000" W
112.50 m
6158355
71508
XTO

Download Data

Hourly Data (July 2017)
Hourly Data Report for July 7, 2017
TIME
LST
Temp Definition
°C
Dew Point Definition
°C
Rel Hum Definition
%
Precip. Amount Definition
mm

Wind Dir Definition
10's deg

Wind Spd Definition
km/h
Visibility Definition
km
Stn Press Definition
kPa
Hmdx Definition


Wind Chill Definition


Weather Definition


00:00 22.7 15.1 62 0.0 LegendMM LegendMM   99.72 27   LegendNANA
01:00 22.5 16.1 67 0.0 LegendMM LegendMM   99.67 27   LegendNANA
02:00 21.7 16.6 73 0.0 LegendMM LegendMM   99.60 27   LegendNANA
03:00 21.2 16.0 72 0.0 LegendMM LegendMM   99.55 26   LegendNANA
04:00 20.1 15.2 73 0.0 LegendMM LegendMM   99.52     LegendNANA
05:00 19.7 14.5 72 0.0 LegendMM LegendMM   99.56     LegendNANA
06:00 20.5 15.2 72 0.0 LegendMM LegendMM   99.55 25   LegendNANA
07:00 21.8 15.7 68 0.0 LegendMM LegendMM   99.57 26   LegendNANA
08:00 23.7 16.0 62 0.0 LegendMM LegendMM   99.57 28   LegendNANA
09:00 24.0 16.0 61 0.0 LegendMM LegendMM   99.53 29   LegendNANA
10:00 24.9 16.5 60 0.0 LegendMM LegendMM   99.46 30   LegendNANA
11:00 24.4 16.3 61 0.0 LegendMM LegendMM   99.46 29   LegendNANA
12:00 23.4 16.6 65 0.0 LegendMM LegendMM   99.47 28   LegendNANA
13:00 25.4 17.6 62 0.0 LegendMM LegendMM   99.43 31   LegendNANA
14:00 25.8 17.1 59 0.0 LegendMM LegendMM   99.42 31   LegendNANA
15:00 27.1 17.3 55 0.0 LegendMM LegendMM   99.34 33   LegendNANA
16:00 26.7 16.0 52 0.0 LegendMM LegendMM   99.26 31   LegendNANA
17:00 26.4 16.1 53 0.0 LegendMM LegendMM   99.22 31   LegendNANA
18:00 22.5 19.7 84 5.3 LegendMM LegendMM   99.23 30   LegendNANA
19:00 22.1 17.1 73 0.6 LegendMM LegendMM   99.26 27   LegendNANA
20:00 21.4 17.3 77 0.0 LegendMM LegendMM   99.27 27   LegendNANA
21:00 21.3 16.7 75 0.0 LegendMM LegendMM   99.32 26   LegendNANA
22:00 21.5 16.2 72 0.0 LegendMM LegendMM   99.27 26   LegendNANA
23:00 21.0 16.7 77 0.0 LegendMM LegendMM   99.18 26   LegendNANA

Notes on Data Quality.

Legend

  • E = Estimated
  • M = Missing
  • NA = Not Available*
  • [empty] = Indicates an unobserved value
Date modified: